Time,TemperatureF,DewpointF,PressureIn,WindDirection,WindDirectionDegrees,WindSpeedMPH,WindSpeedGustMPH,Humidity,HourlyPrecipIn,Conditions,Clouds,dailyrainin,SoftwareType,DateUTC
2013-05-25 00:02:00,59.4,45.5,29.61,ESE,123,2.0,4.0,60,0.00,,,0.00,meteohub,2013-05-25 05:02:00,
2013-05-25 00:07:00,59.4,45.9,29.60,ESE,123,0.0,5.0,61,0.00,,,0.00,meteohub,2013-05-25 05:07:00,
2013-05-25 00:12:00,59.4,45.9,29.62,ESE,123,0.0,5.0,61,0.00,,,0.00,meteohub,2013-05-25 05:12:00,
2013-05-25 00:17:00,59.2,45.7,29.61,ESE,123,0.0,5.0,61,0.00,,,0.00,meteohub,2013-05-25 05:17:00,
2013-05-25 00:22:00,59.2,46.2,29.61,ESE,123,0.0,3.0,62,0.00,,,0.00,meteohub,2013-05-25 05:22:00,
2013-05-25 00:27:00,59.0,46.0,29.61,ESE,123,0.0,3.0,62,0.00,,,0.00,meteohub,2013-05-25 05:27:00,
2013-05-25 00:32:00,58.8,46.2,29.61,ESE,123,0.0,3.0,63,0.00,,,0.00,meteohub,2013-05-25 05:32:00,
2013-05-25 00:37:00,58.6,46.0,29.61,ESE,123,0.0,5.0,63,0.00,,,0.00,meteohub,2013-05-25 05:37:00,
2013-05-25 00:42:00,58.6,46.6,29.60,SE,135,2.0,5.0,64,0.00,,,0.00,meteohub,2013-05-25 05:42:00,
2013-05-25 00:47:00,58.5,46.8,29.59,SE,135,3.0,5.0,65,0.00,,,0.00,meteohub,2013-05-25 05:47:00,
2013-05-25 00:52:00,58.5,46.8,29.57,SSE,148,7.0,7.0,65,0.00,,,0.00,meteohub,2013-05-25 05:52:00,
2013-05-25 00:57:00,58.3,46.6,29.56,South,172,4.0,7.0,65,0.00,,,0.00,meteohub,2013-05-25 05:57:00,
2013-05-25 01:03:00,58.1,46.4,29.56,SE,131,6.0,12.0,65,0.00,,,0.00,meteohub,2013-05-25 06:03:00,
2013-05-25 01:08:00,58.1,46.4,29.57,SE,138,0.0,12.0,65,0.00,,,0.00,meteohub,2013-05-25 06:08:00,
2013-05-25 01:13:00,58.1,46.4,29.57,SE,144,4.0,12.0,65,0.00,,,0.00,meteohub,2013-05-25 06:13:00,
2013-05-25 01:18:00,58.3,46.6,29.57,SE,133,6.0,10.0,65,0.00,,,0.00,meteohub,2013-05-25 06:18:00,
2013-05-25 01:23:00,58.3,46.6,29.56,SSE,150,4.0,9.0,65,0.00,,,0.00,meteohub,2013-05-25 06:23:00,
2013-05-25 01:28:00,58.3,46.6,29.55,SE,141,4.0,8.0,65,0.00,,,0.00,meteohub,2013-05-25 06:28:00,
2013-05-25 01:33:00,58.3,46.6,29.55,SSE,160,7.0,10.0,65,0.00,,,0.00,meteohub,2013-05-25 06:33:00,
2013-05-25 01:38:00,58.3,46.6,29.56,SE,146,3.0,11.0,65,0.00,,,0.00,meteohub,2013-05-25 06:38:00,
2013-05-25 01:43:00,58.3,46.6,29.55,SSE,157,4.0,11.0,65,0.00,,,0.00,meteohub,2013-05-25 06:43:00,
2013-05-25 01:48:00,58.5,46.8,29.54,SSE,165,4.0,11.0,65,0.00,,,0.00,meteohub,2013-05-25 06:48:00,
2013-05-25 01:53:00,58.6,46.9,29.54,South,191,3.0,11.0,65,0.00,,,0.00,meteohub,2013-05-25 06:53:00,
2013-05-25 01:58:00,58.6,46.0,29.54,SE,138,7.0,12.0,63,0.00,,,0.00,meteohub,2013-05-25 06:58:00,
2013-05-25 02:03:00,58.6,46.0,29.52,SSW,207,5.0,13.0,63,0.00,,,0.00,meteohub,2013-05-25 07:03:00,
2013-05-25 02:08:00,58.6,46.0,29.52,SSE,152,6.0,13.0,63,0.00,,,0.00,meteohub,2013-05-25 07:08:00,
2013-05-25 02:13:00,58.8,45.9,29.53,SSW,199,3.0,13.0,62,0.00,,,0.00,meteohub,2013-05-25 07:13:00,
2013-05-25 02:18:00,58.8,45.9,29.54,South,178,0.0,11.0,62,0.00,,,0.00,meteohub,2013-05-25 07:18:00,
2013-05-25 02:23:00,58.8,45.9,29.55,SSE,163,2.0,10.0,62,0.00,,,0.00,meteohub,2013-05-25 07:23:00,
2013-05-25 02:28:00,58.8,46.2,29.56,SSE,160,0.0,10.0,63,0.00,,,0.00,meteohub,2013-05-25 07:28:00,
2013-05-25 02:33:00,58.8,45.9,29.56,SSE,160,0.0,10.0,62,0.00,,,0.00,meteohub,2013-05-25 07:33:00,
2013-05-25 02:38:00,58.8,45.9,29.57,South,173,1.0,5.0,62,0.00,,,0.00,meteohub,2013-05-25 07:38:00,
2013-05-25 02:43:00,58.8,45.9,29.57,SSE,148,1.0,9.0,62,0.00,,,0.00,meteohub,2013-05-25 07:43:00,
2013-05-25 02:48:00,58.8,45.9,29.57,SSE,148,1.0,9.0,62,0.00,,,0.00,meteohub,2013-05-25 07:48:00,
2013-05-25 02:53:00,58.8,45.9,29.56,SSE,148,0.0,9.0,62,0.00,,,0.00,meteohub,2013-05-25 07:53:00,
2013-05-25 02:58:00,58.8,46.2,29.56,SSE,161,0.0,6.0,63,0.00,,,0.00,meteohub,2013-05-25 07:58:00,
2013-05-25 03:03:00,58.6,45.7,29.56,SE,136,5.0,6.0,62,0.00,,,0.00,meteohub,2013-05-25 08:03:00,
2013-05-25 03:08:00,58.6,45.7,29.56,SE,127,6.0,6.0,62,0.00,,,0.00,meteohub,2013-05-25 08:08:00,
2013-05-25 03:13:00,58.6,45.7,29.56,SE,135,4.0,6.0,62,0.00,,,0.00,meteohub,2013-05-25 08:13:00,
2013-05-25 03:18:00,58.6,45.7,29.56,ESE,114,1.0,9.0,62,0.00,,,0.00,meteohub,2013-05-25 08:18:00,
2013-05-25 03:23:00,58.6,45.7,29.56,SE,140,2.0,9.0,62,0.00,,,0.00,meteohub,2013-05-25 08:23:00,
2013-05-25 03:28:00,58.6,45.7,29.57,SSE,157,5.0,9.0,62,0.00,,,0.00,meteohub,2013-05-25 08:28:00,
2013-05-25 03:33:00,58.6,45.3,29.56,SE,146,3.0,7.0,61,0.00,,,0.00,meteohub,2013-05-25 08:33:00,
2013-05-25 03:38:00,58.6,45.3,29.56,SSE,149,4.0,8.0,61,0.00,,,0.00,meteohub,2013-05-25 08:38:00,
2013-05-25 03:43:00,58.6,44.8,29.56,SE,135,4.0,8.0,60,0.00,,,0.00,meteohub,2013-05-25 08:43:00,
2013-05-25 03:49:00,58.6,44.8,29.55,SE,133,0.0,10.0,60,0.00,,,0.00,meteohub,2013-05-25 08:49:00,
2013-05-25 03:54:00,58.6,44.8,29.55,SE,137,5.0,10.0,60,0.00,,,0.00,meteohub,2013-05-25 08:54:00,
2013-05-25 03:59:00,58.6,44.8,29.56,SE,136,3.0,10.0,60,0.00,,,0.00,meteohub,2013-05-25 08:59:00,
2013-05-25 04:04:00,58.6,44.8,29.57,SE,136,0.0,10.0,60,0.00,,,0.00,meteohub,2013-05-25 09:04:00,
2013-05-25 04:09:00,58.6,44.8,29.58,SE,136,0.0,9.0,60,0.00,,,0.00,meteohub,2013-05-25 09:09:00,
2013-05-25 04:14:00,58.6,44.4,29.58,SE,136,0.0,7.0,59,0.00,,,0.00,meteohub,2013-05-25 09:14:00,
2013-05-25 04:19:00,58.6,44.4,29.57,SE,143,0.0,4.0,59,0.00,,,0.00,meteohub,2013-05-25 09:19:00,
2013-05-25 04:24:00,58.6,44.8,29.56,SE,142,0.0,3.0,60,0.00,,,0.00,meteohub,2013-05-25 09:24:00,
2013-05-25 04:29:00,58.6,44.8,29.56,SSE,165,2.0,5.0,60,0.00,,,0.00,meteohub,2013-05-25 09:29:00,
2013-05-25 04:34:00,58.6,44.8,29.57,SSE,160,2.0,5.0,60,0.00,,,0.00,meteohub,2013-05-25 09:34:00,
2013-05-25 04:39:00,58.5,44.6,29.57,SSE,160,0.0,5.0,60,0.00,,,0.00,meteohub,2013-05-25 09:39:00,
2013-05-25 04:44:00,58.5,44.6,29.57,SSE,160,0.0,5.0,60,0.00,,,0.00,meteohub,2013-05-25 09:44:00,
2013-05-25 04:49:00,58.5,45.1,29.57,SSE,159,2.0,5.0,61,0.00,,,0.00,meteohub,2013-05-25 09:49:00,
2013-05-25 04:54:00,58.3,45.0,29.58,SSE,159,0.0,5.0,61,0.00,,,0.00,meteohub,2013-05-25 09:54:00,
2013-05-25 04:59:00,58.3,45.0,29.60,SSE,159,0.0,4.0,61,0.00,,,0.00,meteohub,2013-05-25 09:59:00,
2013-05-25 05:04:00,58.5,45.1,29.61,SSE,159,0.0,4.0,61,0.00,,,0.00,meteohub,2013-05-25 10:04:00,
2013-05-25 05:09:00,58.5,45.1,29.61,SSE,159,0.0,3.0,61,0.00,,,0.00,meteohub,2013-05-25 10:09:00,
2013-05-25 05:14:00,58.5,45.5,29.62,SSE,159,0.0,1.0,62,0.00,,,0.00,meteohub,2013-05-25 10:14:00,
2013-05-25 05:19:00,58.5,46.4,29.61,SSE,159,0.0,0.0,64,0.00,,,0.00,meteohub,2013-05-25 10:19:00,
2013-05-25 05:24:00,58.3,46.9,29.63,SSE,156,0.0,3.0,66,0.00,,,0.00,meteohub,2013-05-25 10:24:00,
2013-05-25 05:29:00,58.1,47.7,29.63,ENE,73,2.0,3.0,68,0.00,,,0.00,meteohub,2013-05-25 10:29:00,
2013-05-25 05:34:00,57.7,48.7,29.62,ENE,71,0.0,4.0,72,0.00,,,0.00,meteohub,2013-05-25 10:34:00,
2013-05-25 05:39:00,57.6,49.3,29.62,SE,126,2.0,5.0,74,0.00,,,0.00,meteohub,2013-05-25 10:39:00,
2013-05-25 05:44:00,57.2,49.3,29.62,SE,126,2.0,5.0,75,0.00,,,0.00,meteohub,2013-05-25 10:44:00,
2013-05-25 05:49:00,57.0,49.5,29.62,SE,139,2.0,6.0,76,0.00,,,0.00,meteohub,2013-05-25 10:49:00,
2013-05-25 05:54:00,56.8,49.6,29.62,SE,139,2.0,6.0,77,0.00,,,0.00,meteohub,2013-05-25 10:54:00,
2013-05-25 05:59:00,56.5,49.3,29.62,SE,135,5.0,5.0,77,0.00,,,0.00,meteohub,2013-05-25 10:59:00,
2013-05-25 06:04:00,56.3,49.1,29.61,SE,139,2.0,7.0,77,0.00,,,0.00,meteohub,2013-05-25 11:04:00,
2013-05-25 06:09:00,56.3,49.1,29.61,SSE,153,4.0,7.0,77,0.00,,,0.00,meteohub,2013-05-25 11:09:00,
2013-05-25 06:14:00,56.3,48.9,29.61,SSE,161,5.0,7.0,76,0.00,,,0.00,meteohub,2013-05-25 11:14:00,
2013-05-25 06:19:00,56.1,48.7,29.60,ESE,118,6.0,10.0,76,0.00,,,0.00,meteohub,2013-05-25 11:19:00,
2013-05-25 06:24:00,56.1,48.7,29.60,SE,146,4.0,10.0,76,0.00,,,0.00,meteohub,2013-05-25 11:24:00,
2013-05-25 06:30:00,56.1,48.7,29.59,SSE,148,5.0,11.0,76,0.00,,,0.00,meteohub,2013-05-25 11:30:00,
2013-05-25 06:35:00,56.1,48.7,29.58,SSE,147,6.0,12.0,76,0.00,,,0.00,meteohub,2013-05-25 11:35:00,
2013-05-25 06:40:00,56.1,48.7,29.58,SE,145,6.0,12.0,76,0.00,,,0.00,meteohub,2013-05-25 11:40:00,
2013-05-25 06:45:00,56.1,48.7,29.57,ESE,115,15.0,15.0,76,0.00,,,0.00,meteohub,2013-05-25 11:45:00,
2013-05-25 06:50:00,56.1,48.7,29.58,SSE,149,5.0,16.0,76,0.00,,,0.00,meteohub,2013-05-25 11:50:00,
2013-05-25 06:55:00,56.1,48.7,29.59,ESE,119,6.0,18.0,76,0.00,,,0.00,meteohub,2013-05-25 11:55:00,
2013-05-25 07:00:00,56.3,48.9,29.59,SE,134,5.0,18.0,76,0.00,,,0.00,meteohub,2013-05-25 12:00:00,
2013-05-25 07:05:00,56.5,48.7,29.58,SSE,147,10.0,18.0,75,0.00,,,0.00,meteohub,2013-05-25 12:05:00,
2013-05-25 07:10:00,56.7,48.7,29.58,ESE,119,7.0,15.0,75,0.00,,,0.00,meteohub,2013-05-25 12:10:00,
2013-05-25 07:15:00,56.7,48.7,29.58,SE,138,8.0,15.0,75,0.00,,,0.00,meteohub,2013-05-25 12:15:00,
2013-05-25 07:20:00,56.8,48.6,29.58,South,169,4.0,16.0,74,0.00,,,0.00,meteohub,2013-05-25 12:20:00,
2013-05-25 07:25:00,56.8,48.2,29.59,SE,128,2.0,16.0,73,0.00,,,0.00,meteohub,2013-05-25 12:25:00,
2013-05-25 07:30:00,57.0,48.4,29.59,SE,140,5.0,16.0,73,0.00,,,0.00,meteohub,2013-05-25 12:30:00,
2013-05-25 07:35:00,57.2,48.6,29.58,SE,130,5.0,16.0,73,0.00,,,0.00,meteohub,2013-05-25 12:35:00,
2013-05-25 07:40:00,57.2,48.2,29.58,SE,144,3.0,16.0,72,0.00,,,0.00,meteohub,2013-05-25 12:40:00,
2013-05-25 07:45:00,57.4,48.4,29.57,ESE,115,10.0,16.0,72,0.00,,,0.00,meteohub,2013-05-25 12:45:00,
2013-05-25 07:50:00,57.4,48.4,29.57,SE,139,7.0,16.0,72,0.00,,,0.00,meteohub,2013-05-25 12:50:00,
2013-05-25 07:55:00,57.4,48.0,29.58,South,169,2.0,16.0,71,0.00,,,0.00,meteohub,2013-05-25 12:55:00,
2013-05-25 08:00:00,57.6,48.2,29.57,SE,136,5.0,13.0,71,0.00,,,0.00,meteohub,2013-05-25 13:00:00,
2013-05-25 08:05:00,57.6,48.2,29.57,SSE,163,6.0,13.0,71,0.00,,,0.00,meteohub,2013-05-25 13:05:00,
2013-05-25 08:10:00,57.6,48.2,29.58,SE,140,6.0,12.0,71,0.00,,,0.00,meteohub,2013-05-25 13:10:00,
2013-05-25 08:15:00,57.7,48.0,29.57,ESE,123,6.0,12.0,70,0.00,,,0.00,meteohub,2013-05-25 13:15:00,
2013-05-25 08:20:00,57.9,48.2,29.57,ESE,117,5.0,13.0,70,0.00,,,0.00,meteohub,2013-05-25 13:20:00,
2013-05-25 08:25:00,58.1,48.4,29.57,SE,144,6.0,13.0,70,0.00,,,0.00,meteohub,2013-05-25 13:25:00,
2013-05-25 08:30:00,58.3,48.2,29.58,SSE,152,4.0,13.0,69,0.00,,,0.00,meteohub,2013-05-25 13:30:00,
2013-05-25 08:35:00,58.3,48.2,29.58,ESE,123,9.0,13.0,69,0.00,,,0.00,meteohub,2013-05-25 13:35:00,
2013-05-25 08:40:00,58.5,48.0,29.59,SE,127,5.0,10.0,68,0.00,,,0.00,meteohub,2013-05-25 13:40:00,
2013-05-25 08:45:00,58.5,48.0,29.58,ESE,123,5.0,10.0,68,0.00,,,0.00,meteohub,2013-05-25 13:45:00,
2013-05-25 08:51:00,58.5,48.0,29.57,SSE,153,4.0,11.0,68,0.00,,,0.00,meteohub,2013-05-25 13:51:00,
2013-05-25 08:56:00,58.6,47.7,29.58,SE,141,2.0,11.0,67,0.00,,,0.00,meteohub,2013-05-25 13:56:00,
2013-05-25 09:01:00,58.6,47.7,29.59,SE,136,2.0,11.0,67,0.00,,,0.00,meteohub,2013-05-25 14:01:00,
2013-05-25 09:06:00,58.6,47.7,29.59,South,180,0.0,11.0,67,0.00,,,0.00,meteohub,2013-05-25 14:06:00,
2013-05-25 09:11:00,58.8,47.8,29.60,SSE,156,2.0,10.0,67,0.00,,,0.00,meteohub,2013-05-25 14:11:00,
2013-05-25 09:16:00,58.8,47.8,29.60,SSE,156,0.0,10.0,67,0.00,,,0.00,meteohub,2013-05-25 14:16:00,
2013-05-25 09:21:00,58.8,47.8,29.58,SSE,156,1.0,6.0,67,0.00,,,0.00,meteohub,2013-05-25 14:21:00,
2013-05-25 09:26:00,58.8,48.2,29.59,SSE,168,3.0,6.0,68,0.00,,,0.00,meteohub,2013-05-25 14:26:00,
2013-05-25 09:31:00,58.8,48.7,29.59,South,170,0.0,5.0,69,0.00,,,0.00,meteohub,2013-05-25 14:31:00,
2013-05-25 09:36:00,58.6,49.3,29.58,SSE,155,0.0,5.0,71,0.00,,,0.00,meteohub,2013-05-25 14:36:00,
2013-05-25 09:41:00,58.5,49.8,29.58,SSE,155,0.0,4.0,73,0.00,,,0.00,meteohub,2013-05-25 14:41:00,
2013-05-25 09:46:00,58.3,50.4,29.59,SSE,155,0.0,4.0,75,0.00,,,0.00,meteohub,2013-05-25 14:46:00,
2013-05-25 09:51:00,57.9,50.4,29.58,ENE,76,0.0,5.0,76,0.00,,,0.00,meteohub,2013-05-25 14:51:00,
2013-05-25 09:56:00,57.6,50.4,29.60,ENE,76,0.0,5.0,77,0.00,,,0.00,meteohub,2013-05-25 14:56:00,
2013-05-25 10:01:00,57.4,51.3,29.60,ENE,77,0.0,5.0,80,0.00,,,0.00,meteohub,2013-05-25 15:01:00,
2013-05-25 10:06:00,57.0,51.3,29.61,ENE,77,0.0,3.0,81,0.00,,,0.00,meteohub,2013-05-25 15:06:00,
2013-05-25 10:11:00,56.8,51.8,29.61,NE,42,4.0,4.0,83,0.00,,,0.00,meteohub,2013-05-25 15:11:00,
2013-05-25 10:16:00,56.5,51.6,29.60,ESE,104,3.0,5.0,84,0.00,,,0.00,meteohub,2013-05-25 15:16:00,
2013-05-25 10:21:00,56.1,51.6,29.60,SE,125,5.0,7.0,85,0.00,,,0.00,meteohub,2013-05-25 15:21:00,
2013-05-25 10:26:00,55.8,51.6,29.61,SE,130,0.0,9.0,86,0.00,,,0.00,meteohub,2013-05-25 15:26:00,
2013-05-25 10:31:00,55.6,51.8,29.62,East,89,2.0,9.0,87,0.00,,,0.00,meteohub,2013-05-25 15:31:00,
2013-05-25 10:36:00,55.2,51.8,29.60,East,96,3.0,10.0,88,0.00,,,0.00,meteohub,2013-05-25 15:36:00,
2013-05-25 10:41:00,55.0,51.6,29.61,ESE,114,2.0,10.0,88,0.00,,,0.00,meteohub,2013-05-25 15:41:00,
2013-05-25 10:46:00,55.0,51.6,29.62,NE,46,4.0,10.0,88,0.00,,,0.00,meteohub,2013-05-25 15:46:00,
2013-05-25 10:51:00,54.9,51.6,29.64,NE,53,2.0,8.0,89,0.00,,,0.00,meteohub,2013-05-25 15:51:00,
2013-05-25 10:56:00,54.7,51.4,29.63,East,82,5.0,8.0,89,0.00,,,0.00,meteohub,2013-05-25 15:56:00,
2013-05-25 11:01:00,54.3,51.1,29.62,SE,140,2.0,8.0,89,0.00,,,0.00,meteohub,2013-05-25 16:01:00,
2013-05-25 11:06:00,54.1,51.3,29.62,ENE,75,4.0,9.0,90,0.00,,,0.00,meteohub,2013-05-25 16:06:00,
2013-05-25 11:11:00,54.0,51.1,29.63,NE,54,5.0,13.0,90,0.00,,,0.00,meteohub,2013-05-25 16:11:00,
2013-05-25 11:16:00,53.8,51.3,29.62,East,101,6.0,13.0,91,0.00,,,0.00,meteohub,2013-05-25 16:16:00,
2013-05-25 11:22:00,53.4,50.9,29.60,East,100,5.0,13.0,91,0.00,,,0.00,meteohub,2013-05-25 16:22:00,
2013-05-25 11:27:00,53.2,50.7,29.60,East,82,5.0,13.0,91,0.00,,,0.00,meteohub,2013-05-25 16:27:00,
2013-05-25 11:32:00,53.1,50.7,29.60,SE,132,6.0,13.0,92,0.00,,,0.00,meteohub,2013-05-25 16:32:00,
2013-05-25 11:37:00,53.1,50.7,29.62,ESE,105,3.0,13.0,92,0.00,,,0.00,meteohub,2013-05-25 16:37:00,
2013-05-25 11:42:00,53.1,50.7,29.65,NNE,32,3.0,13.0,92,0.00,,,0.00,meteohub,2013-05-25 16:42:00,
2013-05-25 11:47:00,53.1,50.7,29.65,ESE,114,3.0,13.0,92,0.00,,,0.00,meteohub,2013-05-25 16:47:00,
2013-05-25 11:52:00,52.9,50.5,29.63,SE,138,10.0,12.0,92,0.00,,,0.00,meteohub,2013-05-25 16:52:00,
2013-05-25 11:57:00,52.7,50.7,29.67,SSE,158,1.0,13.0,93,0.00,,,0.00,meteohub,2013-05-25 16:57:00,
2013-05-25 12:02:00,52.5,50.5,29.65,ENE,77,4.0,13.0,93,0.00,,,0.00,meteohub,2013-05-25 17:02:00,
2013-05-25 12:07:00,52.3,50.4,29.62,ESE,122,5.0,13.0,93,0.00,,,0.00,meteohub,2013-05-25 17:07:00,
2013-05-25 12:12:00,52.3,50.4,29.62,SE,132,8.0,10.0,93,0.00,,,0.00,meteohub,2013-05-25 17:12:00,
2013-05-25 12:17:00,52.3,50.7,29.60,ESE,106,11.0,12.0,94,0.00,,,0.00,meteohub,2013-05-25 17:17:00,
2013-05-25 12:22:00,52.2,50.5,29.60,SE,140,5.0,13.0,94,0.00,,,0.00,meteohub,2013-05-25 17:22:00,
2013-05-25 12:27:00,52.2,50.5,29.60,SSE,156,10.0,13.0,94,0.00,,,0.00,meteohub,2013-05-25 17:27:00,
2013-05-25 12:32:00,52.2,50.5,29.57,SE,127,7.0,13.0,94,0.00,,,0.00,meteohub,2013-05-25 17:32:00,
2013-05-25 12:37:00,52.2,50.5,29.57,SSE,161,7.0,15.0,94,0.00,,,0.00,meteohub,2013-05-25 17:37:00,
2013-05-25 12:42:00,52.3,50.7,29.57,SE,144,6.0,15.0,94,0.00,,,0.00,meteohub,2013-05-25 17:42:00,
2013-05-25 12:47:00,52.3,50.9,29.57,SSE,160,4.0,15.0,95,0.00,,,0.00,meteohub,2013-05-25 17:47:00,
2013-05-25 12:52:00,52.5,51.1,29.57,ESE,123,12.0,15.0,95,0.00,,,0.00,meteohub,2013-05-25 17:52:00,
2013-05-25 12:57:00,52.9,51.4,29.57,SSE,159,4.0,16.0,95,0.00,,,0.00,meteohub,2013-05-25 17:57:00,
2013-05-25 13:02:00,53.1,51.6,29.57,South,188,9.0,19.0,95,0.00,,,0.00,meteohub,2013-05-25 18:02:00,
2013-05-25 13:07:00,53.2,51.8,29.57,South,170,3.0,19.0,95,0.00,,,0.00,meteohub,2013-05-25 18:07:00,
2013-05-25 13:12:00,53.4,51.8,29.57,SE,132,7.0,19.0,94,0.00,,,0.00,meteohub,2013-05-25 18:12:00,
2013-05-25 13:17:00,53.4,51.8,29.57,SSE,165,6.0,16.0,94,0.00,,,0.00,meteohub,2013-05-25 18:17:00,
2013-05-25 13:22:00,53.8,52.2,29.57,SE,125,9.0,16.0,94,0.00,,,0.00,meteohub,2013-05-25 18:22:00,
2013-05-25 13:27:00,54.0,52.5,29.55,SE,141,6.0,13.0,95,0.00,,,0.00,meteohub,2013-05-25 18:27:00,
2013-05-25 13:32:00,54.1,52.5,29.55,SSE,150,4.0,16.0,94,0.00,,,0.00,meteohub,2013-05-25 18:32:00,
2013-05-25 13:37:00,54.3,52.7,29.55,SE,141,13.0,16.0,94,0.00,,,0.00,meteohub,2013-05-25 18:37:00,
2013-05-25 13:42:00,54.3,52.7,29.54,SE,130,10.0,16.0,94,0.00,,,0.00,meteohub,2013-05-25 18:42:00,
2013-05-25 13:47:00,54.9,53.2,29.54,SSE,161,0.0,16.0,94,0.00,,,0.00,meteohub,2013-05-25 18:47:00,
2013-05-25 13:53:00,55.0,53.1,29.53,SE,131,6.0,15.0,93,0.00,,,0.00,meteohub,2013-05-25 18:53:00,
2013-05-25 13:58:00,55.0,53.1,29.52,SE,127,3.0,18.0,93,0.00,,,0.00,meteohub,2013-05-25 18:58:00,
2013-05-25 14:03:00,55.2,52.9,29.52,SE,126,15.0,18.0,92,0.00,,,0.00,meteohub,2013-05-25 19:03:00,
2013-05-25 14:08:00,55.6,53.2,29.52,SSE,153,5.0,18.0,92,0.00,,,0.00,meteohub,2013-05-25 19:08:00,
2013-05-25 14:13:00,55.9,54.0,29.52,SE,138,14.0,18.0,93,0.00,,,0.00,meteohub,2013-05-25 19:13:00,
2013-05-25 14:18:00,56.1,53.8,29.51,SE,146,6.0,18.0,92,0.00,,,0.00,meteohub,2013-05-25 19:18:00,
2013-05-25 14:23:00,56.7,54.7,29.51,ESE,115,7.0,16.0,93,0.00,,,0.00,meteohub,2013-05-25 19:23:00,
2013-05-25 14:28:00,57.0,54.5,29.51,SSE,165,2.0,16.0,91,0.00,,,0.00,meteohub,2013-05-25 19:28:00,
2013-05-25 14:33:00,57.2,54.3,29.51,SE,134,12.0,18.0,90,0.00,,,0.00,meteohub,2013-05-25 19:33:00,
2013-05-25 14:38:00,57.4,54.1,29.50,South,176,1.0,18.0,89,0.00,,,0.00,meteohub,2013-05-25 19:38:00,
2013-05-25 14:43:00,57.7,54.1,29.50,SE,146,6.0,18.0,88,0.00,,,0.00,meteohub,2013-05-25 19:43:00,
2013-05-25 14:48:00,57.9,53.8,29.50,South,188,6.0,18.0,86,0.00,,,0.00,meteohub,2013-05-25 19:48:00,
2013-05-25 14:53:00,58.1,54.0,29.50,ESE,105,6.0,20.0,86,0.00,,,0.00,meteohub,2013-05-25 19:53:00,
2013-05-25 14:58:00,58.5,54.0,29.50,SSE,166,3.0,20.0,85,0.00,,,0.00,meteohub,2013-05-25 19:58:00,
2013-05-25 15:03:00,58.6,53.8,29.50,South,178,2.0,20.0,84,0.00,,,0.00,meteohub,2013-05-25 20:03:00,
2013-05-25 15:08:00,58.8,53.6,29.50,SE,142,3.0,18.0,83,0.00,,,0.00,meteohub,2013-05-25 20:08:00,
2013-05-25 15:13:00,59.2,54.0,29.50,SSE,150,1.0,18.0,83,0.00,,,0.00,meteohub,2013-05-25 20:13:00,
2013-05-25 15:18:00,59.2,53.6,29.50,SSW,192,2.0,16.0,82,0.00,,,0.00,meteohub,2013-05-25 20:18:00,
2013-05-25 15:23:00,59.5,54.3,29.51,SSE,158,5.0,15.0,83,0.00,,,0.00,meteohub,2013-05-25 20:23:00,
2013-05-25 15:28:00,59.5,54.0,29.50,SE,126,8.0,15.0,82,0.00,,,0.00,meteohub,2013-05-25 20:28:00,
2013-05-25 15:33:00,59.7,54.0,29.50,SE,128,9.0,15.0,81,0.00,,,0.00,meteohub,2013-05-25 20:33:00,
2013-05-25 15:38:00,59.7,54.0,29.50,South,171,0.0,15.0,81,0.00,,,0.00,meteohub,2013-05-25 20:38:00,
2013-05-25 15:43:00,60.1,54.3,29.49,SE,139,5.0,15.0,81,0.00,,,0.00,meteohub,2013-05-25 20:43:00,
2013-05-25 15:48:00,60.3,54.1,29.49,South,184,6.0,18.0,80,0.00,,,0.00,meteohub,2013-05-25 20:48:00,
2013-05-25 15:54:00,60.6,54.7,29.49,South,187,10.0,18.0,81,0.00,,,0.00,meteohub,2013-05-25 20:54:00,
2013-05-25 15:59:00,60.8,54.3,29.49,South,177,3.0,18.0,79,0.00,,,0.00,meteohub,2013-05-25 20:59:00,
2013-05-25 16:04:00,61.2,54.7,29.49,South,178,5.0,15.0,79,0.00,,,0.00,meteohub,2013-05-25 21:04:00,
2013-05-25 16:09:00,61.5,54.9,29.48,South,185,3.0,15.0,79,0.00,,,0.00,meteohub,2013-05-25 21:09:00,
2013-05-25 16:14:00,62.2,55.2,29.47,South,177,10.0,14.0,78,0.00,,,0.00,meteohub,2013-05-25 21:14:00,
2013-05-25 16:19:00,63.1,56.1,29.47,South,176,5.0,14.0,78,0.00,,,0.00,meteohub,2013-05-25 21:19:00,
2013-05-25 16:24:00,63.9,56.1,29.47,SSW,201,5.0,15.0,76,0.00,,,0.00,meteohub,2013-05-25 21:24:00,
2013-05-25 16:29:00,64.0,56.3,29.47,SE,131,5.0,18.0,76,0.00,,,0.00,meteohub,2013-05-25 21:29:00,
2013-05-25 16:34:00,64.0,55.9,29.47,SSW,192,2.0,18.0,75,0.00,,,0.00,meteohub,2013-05-25 21:34:00,
2013-05-25 16:39:00,64.0,55.9,29.47,SSE,160,1.0,18.0,75,0.00,,,0.00,meteohub,2013-05-25 21:39:00,
2013-05-25 16:44:00,64.2,56.1,29.47,SW,231,3.0,18.0,75,0.00,,,0.00,meteohub,2013-05-25 21:44:00,
2013-05-25 16:49:00,64.6,56.5,29.47,SSE,161,8.0,18.0,75,0.00,,,0.00,meteohub,2013-05-25 21:49:00,
2013-05-25 16:54:00,64.8,56.3,29.48,SSE,163,6.0,18.0,74,0.00,,,0.00,meteohub,2013-05-25 21:54:00,
2013-05-25 16:59:00,64.9,56.8,29.47,SSW,194,0.0,15.0,75,0.00,,,0.00,meteohub,2013-05-25 21:59:00,
2013-05-25 17:04:00,64.9,56.5,29.47,SSE,162,0.0,15.0,74,0.00,,,0.00,meteohub,2013-05-25 22:04:00,
2013-05-25 17:09:00,65.5,57.4,29.47,SSW,196,0.0,16.0,75,0.00,,,0.00,meteohub,2013-05-25 22:09:00,
2013-05-25 17:14:00,65.7,57.2,29.47,SSE,158,11.0,16.0,74,0.00,,,0.00,meteohub,2013-05-25 22:14:00,
2013-05-25 17:19:00,65.7,56.8,29.47,South,179,7.0,16.0,73,0.00,,,0.00,meteohub,2013-05-25 22:19:00,
2013-05-25 17:24:00,65.7,57.2,29.46,SW,234,7.0,17.0,74,0.00,,,0.00,meteohub,2013-05-25 22:24:00,
2013-05-25 17:29:00,65.7,57.6,29.47,SSE,150,5.0,17.0,75,0.00,,,0.00,meteohub,2013-05-25 22:29:00,
2013-05-25 17:34:00,66.2,57.7,29.47,SE,126,5.0,17.0,74,0.00,,,0.00,meteohub,2013-05-25 22:34:00,
2013-05-25 17:39:00,66.6,57.6,29.47,SSE,147,0.0,16.0,73,0.00,,,0.00,meteohub,2013-05-25 22:39:00,
2013-05-25 17:44:00,66.9,57.9,29.47,South,186,1.0,11.0,73,0.00,,,0.00,meteohub,2013-05-25 22:44:00,
2013-05-25 17:49:00,66.9,57.6,29.48,South,187,3.0,10.0,72,0.00,,,0.00,meteohub,2013-05-25 22:49:00,
2013-05-25 17:54:00,67.3,57.6,29.47,SSE,163,1.0,12.0,71,0.00,,,0.00,meteohub,2013-05-25 22:54:00,
2013-05-25 17:59:00,67.5,57.7,29.47,SE,138,1.0,12.0,71,0.01,,,0.01,meteohub,2013-05-25 22:59:00,
2013-05-25 18:05:00,67.3,57.6,29.48,SE,146,5.0,12.0,71,0.01,,,0.01,meteohub,2013-05-25 23:05:00,
2013-05-25 18:10:00,66.9,57.2,29.47,SE,134,0.0,9.0,71,0.01,,,0.01,meteohub,2013-05-25 23:10:00,
2013-05-25 18:15:00,66.9,57.9,29.47,ESE,112,1.0,10.0,73,0.01,,,0.01,meteohub,2013-05-25 23:15:00,
2013-05-25 18:20:00,66.9,57.6,29.48,SE,143,0.0,10.0,72,0.01,,,0.01,meteohub,2013-05-25 23:20:00,
2013-05-25 18:25:00,66.9,57.2,29.48,SE,141,0.0,8.0,71,0.01,,,0.01,meteohub,2013-05-25 23:25:00,
2013-05-25 18:30:00,66.7,57.4,29.48,SE,140,0.0,7.0,72,0.01,,,0.01,meteohub,2013-05-25 23:30:00,
2013-05-25 18:35:00,66.7,57.4,29.47,SE,141,2.0,10.0,72,0.01,,,0.01,meteohub,2013-05-25 23:35:00,
2013-05-25 18:40:00,66.6,57.6,29.47,SE,141,0.0,10.0,73,0.01,,,0.01,meteohub,2013-05-25 23:40:00,
2013-05-25 18:45:00,66.4,57.4,29.47,East,98,0.0,4.0,73,0.01,,,0.01,meteohub,2013-05-25 23:45:00,
2013-05-25 18:50:00,66.0,57.6,29.47,ESE,121,3.0,5.0,74,0.01,,,0.01,meteohub,2013-05-25 23:50:00,
2013-05-25 18:55:00,65.8,57.4,29.47,ESE,121,0.0,5.0,74,0.00,,,0.01,meteohub,2013-05-25 23:55:00,
2013-05-25 19:00:00,65.8,57.7,29.47,ESE,104,3.0,5.0,75,0.00,,,0.01,meteohub,2013-05-26 00:00:00,
2013-05-25 19:05:00,65.7,57.6,29.47,ENE,69,5.0,5.0,75,0.00,,,0.00,meteohub,2013-05-26 00:05:00,
2013-05-25 19:10:00,65.5,57.4,29.47,ESE,120,0.0,9.0,75,0.00,,,0.00,meteohub,2013-05-26 00:10:00,
2013-05-25 19:15:00,65.1,57.4,29.47,East,98,4.0,9.0,76,0.00,,,0.00,meteohub,2013-05-26 00:15:00,
2013-05-25 19:20:00,64.9,57.2,29.47,ESE,110,5.0,8.0,76,0.00,,,0.00,meteohub,2013-05-26 00:20:00,
2013-05-25 19:25:00,64.8,57.0,29.47,ESE,117,3.0,7.0,76,0.00,,,0.00,meteohub,2013-05-26 00:25:00,
2013-05-25 19:30:00,64.4,56.7,29.48,ESE,119,1.0,7.0,76,0.00,,,0.00,meteohub,2013-05-26 00:30:00,
2013-05-25 19:35:00,64.2,56.8,29.48,East,87,3.0,7.0,77,0.00,,,0.00,meteohub,2013-05-26 00:35:00,
2013-05-25 19:40:00,64.0,56.7,29.48,ESE,102,0.0,7.0,77,0.00,,,0.00,meteohub,2013-05-26 00:40:00,
2013-05-25 19:45:00,64.0,56.7,29.48,SE,128,3.0,7.0,77,0.00,,,0.00,meteohub,2013-05-26 00:45:00,
2013-05-25 19:50:00,63.9,56.5,29.48,ESE,123,2.0,7.0,77,0.00,,,0.00,meteohub,2013-05-26 00:50:00,
2013-05-25 19:56:00,63.9,56.5,29.48,ESE,109,2.0,6.0,77,0.00,,,0.00,meteohub,2013-05-26 00:56:00,
2013-05-25 20:01:00,63.7,56.3,29.47,East,101,7.0,7.0,77,0.00,,,0.00,meteohub,2013-05-26 01:01:00,
2013-05-25 20:06:00,63.5,56.1,29.48,East,90,6.0,7.0,77,0.00,,,0.00,meteohub,2013-05-26 01:06:00,
2013-05-25 20:11:00,63.3,56.3,29.47,ESE,109,6.0,7.0,78,0.00,,,0.00,meteohub,2013-05-26 01:11:00,
2013-05-25 20:16:00,63.1,55.8,29.48,ENE,74,4.0,7.0,77,0.00,,,0.00,meteohub,2013-05-26 01:16:00,
2013-05-25 20:21:00,63.0,55.6,29.47,East,98,2.0,7.0,77,0.00,,,0.00,meteohub,2013-05-26 01:21:00,
2013-05-25 20:26:00,62.6,55.2,29.47,East,90,2.0,7.0,77,0.00,,,0.00,meteohub,2013-05-26 01:26:00,
2013-05-25 20:31:00,62.2,55.2,29.47,East,80,2.0,10.0,78,0.00,,,0.00,meteohub,2013-05-26 01:31:00,
2013-05-25 20:36:00,61.9,55.2,29.47,East,96,1.0,10.0,79,0.00,,,0.00,meteohub,2013-05-26 01:36:00,
2013-05-25 20:41:00,61.3,55.0,29.47,NE,52,3.0,10.0,80,0.00,,,0.00,meteohub,2013-05-26 01:41:00,
2013-05-25 20:46:00,61.2,55.2,29.47,ENE,61,2.0,10.0,81,0.00,,,0.00,meteohub,2013-05-26 01:46:00,
2013-05-25 20:51:00,61.0,55.4,29.48,East,91,4.0,10.0,82,0.00,,,0.00,meteohub,2013-05-26 01:51:00,
2013-05-25 20:56:00,61.0,55.4,29.48,ESE,105,6.0,10.0,82,0.00,,,0.00,meteohub,2013-05-26 01:56:00,
2013-05-25 21:01:00,60.6,55.0,29.48,ESE,102,4.0,11.0,82,0.00,,,0.00,meteohub,2013-05-26 02:01:00,
2013-05-25 21:06:00,60.4,54.9,29.48,NE,51,5.0,12.0,82,0.00,,,0.00,meteohub,2013-05-26 02:06:00,
2013-05-25 21:11:00,60.1,54.9,29.48,NE,50,5.0,12.0,83,0.00,,,0.00,meteohub,2013-05-26 02:11:00,
2013-05-25 21:16:00,59.5,54.3,29.49,ESE,111,6.0,12.0,83,0.00,,,0.00,meteohub,2013-05-26 02:16:00,
2013-05-25 21:21:00,59.0,54.1,29.49,ENE,57,2.0,11.0,84,0.00,,,0.00,meteohub,2013-05-26 02:21:00,
2013-05-25 21:26:00,58.6,54.1,29.49,ENE,69,4.0,12.0,85,0.00,,,0.00,meteohub,2013-05-26 02:26:00,
2013-05-25 21:31:00,58.3,53.8,29.49,East,84,4.0,12.0,85,0.00,,,0.00,meteohub,2013-05-26 02:31:00,
2013-05-25 21:36:00,58.1,54.0,29.49,ENE,63,0.0,11.0,86,0.00,,,0.00,meteohub,2013-05-26 02:36:00,
2013-05-25 21:41:00,57.9,53.8,29.49,East,91,3.0,11.0,86,0.00,,,0.00,meteohub,2013-05-26 02:41:00,
2013-05-25 21:46:00,57.7,53.6,29.49,ESE,120,5.0,11.0,86,0.00,,,0.00,meteohub,2013-05-26 02:46:00,
2013-05-25 21:51:00,57.7,53.6,29.49,East,84,5.0,14.0,86,0.00,,,0.00,meteohub,2013-05-26 02:51:00,
2013-05-25 21:56:00,57.6,53.4,29.49,ESE,118,4.0,14.0,86,0.00,,,0.00,meteohub,2013-05-26 02:56:00,
2013-05-25 22:01:00,57.6,53.4,29.49,SE,133,7.0,14.0,86,0.00,,,0.00,meteohub,2013-05-26 03:01:00,
2013-05-25 22:06:00,57.4,53.2,29.50,SE,133,2.0,14.0,86,0.00,,,0.00,meteohub,2013-05-26 03:06:00,
2013-05-25 22:11:00,57.0,52.5,29.50,ESE,117,5.0,12.0,85,0.00,,,0.00,meteohub,2013-05-26 03:11:00,
2013-05-25 22:16:00,57.0,52.5,29.50,East,90,2.0,12.0,85,0.00,,,0.00,meteohub,2013-05-26 03:16:00,
2013-05-25 22:21:00,56.8,52.3,29.49,SE,143,6.0,15.0,85,0.00,,,0.00,meteohub,2013-05-26 03:21:00,
2013-05-25 22:27:00,56.7,52.2,29.50,ESE,123,1.0,15.0,85,0.00,,,0.00,meteohub,2013-05-26 03:27:00,
2013-05-25 22:32:00,56.7,52.2,29.50,SE,138,6.0,13.0,85,0.00,,,0.00,meteohub,2013-05-26 03:32:00,
2013-05-25 22:37:00,56.5,52.0,29.50,SE,124,3.0,13.0,85,0.00,,,0.00,meteohub,2013-05-26 03:37:00,
2013-05-25 22:42:00,56.5,52.0,29.50,SE,127,5.0,12.0,85,0.00,,,0.00,meteohub,2013-05-26 03:42:00,
2013-05-25 22:47:00,56.3,51.8,29.50,SSE,149,3.0,12.0,85,0.00,,,0.00,meteohub,2013-05-26 03:47:00,
2013-05-25 22:52:00,56.3,51.8,29.50,East,83,8.0,12.0,85,0.00,,,0.00,meteohub,2013-05-26 03:52:00,
2013-05-25 22:57:00,56.1,51.6,29.50,East,101,6.0,12.0,85,0.00,,,0.00,meteohub,2013-05-26 03:57:00,
2013-05-25 23:01:00,56.1,51.6,29.50,SE,128,3.0,12.0,85,0.00,,,0.00,meteohub,2013-05-26 04:01:00,
2013-05-25 23:02:00,56.1,51.6,29.50,SE,140,6.0,12.0,85,0.00,,,0.00,meteohub,2013-05-26 04:02:00,
2013-05-25 23:07:00,56.1,51.6,29.50,East,96,5.0,11.0,85,0.00,,,0.00,meteohub,2013-05-26 04:07:00,
2013-05-25 23:12:00,56.1,51.6,29.49,East,88,4.0,12.0,85,0.00,,,0.00,meteohub,2013-05-26 04:12:00,
2013-05-25 23:17:00,55.9,51.4,29.50,SSE,148,6.0,16.0,85,0.00,,,0.00,meteohub,2013-05-26 04:17:00,
2013-05-25 23:22:00,55.9,51.4,29.50,SE,140,6.0,16.0,85,0.00,,,0.00,meteohub,2013-05-26 04:22:00,
2013-05-25 23:27:00,55.9,51.4,29.50,SE,146,1.0,11.0,85,0.00,,,0.00,meteohub,2013-05-26 04:27:00,
2013-05-25 23:32:00,55.9,51.4,29.50,SE,132,3.0,13.0,85,0.00,,,0.00,meteohub,2013-05-26 04:32:00,
2013-05-25 23:37:00,55.9,51.4,29.50,SE,134,6.0,14.0,85,0.00,,,0.00,meteohub,2013-05-26 04:37:00,
2013-05-25 23:42:00,55.8,51.3,29.49,SE,128,7.0,14.0,85,0.00,,,0.00,meteohub,2013-05-26 04:42:00,
2013-05-25 23:47:00,55.8,51.1,29.49,ESE,104,4.0,15.0,84,0.00,,,0.00,meteohub,2013-05-26 04:47:00,
2013-05-25 23:52:00,55.8,51.1,29.49,SE,132,5.0,18.0,84,0.00,,,0.00,meteohub,2013-05-26 04:52:00,
2013-05-25 23:57:00,55.8,51.1,29.49,ESE,109,2.0,18.0,84,0.00,,,0.00,meteohub,2013-05-26 04:57:00,